| time (UTC) | temp F | wind direction | speed knots | gust knots | rain 1hr in | rain 24hr in | rain mn in | humidity % | barometer mb |
| 20260506201738 | 60 | 334 | 2.6 | 9.6 | 0.00 | 0.00 | 0.31 | 93 | |
| 20260506200738 | 60 | 227 | 3.5 | 10.4 | 0.00 | 0.00 | 0.31 | 93 | |
| 20260506195738 | 59 | 234 | 7.8 | 12.2 | 0.00 | 0.00 | 0.31 | 93 | |
| 20260506194738 | 60 | 195 | 4.3 | 13.0 | 0.00 | 0.00 | 0.31 | 93 | |
| 20260506193738 | 59 | 155 | 1.7 | 11.3 | 0.00 | 0.00 | 0.31 | 93 | |
| 20260506192738 | 59 | 244 | 3.5 | 14.8 | 0.00 | 0.00 | 0.31 | 93 | |
| 20260506191739 | 59 | 238 | 5.2 | 12.2 | 0.00 | 0.00 | 0.31 | 94 | |
| 20260506190738 | 59 | 267 | 10.4 | 14.8 | 0.00 | 0.00 | 0.30 | 93 | |
| 20260506185738 | 59 | 245 | 2.6 | 13.0 | 0.00 | 0.00 | 0.30 | 93 | |
| 20260506184738 | 59 | 248 | 4.3 | 13.0 | 0.00 | 0.00 | 0.30 | 94 | |
| 20260506183739 | 59 | 237 | 8.7 | 9.6 | 0.00 | 0.00 | 0.30 | 94 | |
| 20260506182738 | 59 | 286 | 0.9 | 12.2 | 0.00 | 0.00 | 0.30 | 94 | |
| 20260506181738 | 59 | 248 | 4.3 | 12.2 | 0.00 | 0.00 | 0.30 | 94 | |
| 20260506180738 | 59 | 234 | 6.1 | 11.3 | 0.00 | 0.00 | 0.30 | 94 | |
| 20260506175738 | 59 | 245 | 7.0 | 8.7 | 0.00 | 0.00 | 0.30 | 94 | |
| 20260506174738 | 59 | 257 | 2.6 | 10.4 | 0.00 | 0.00 | 0.30 | 95 | |
| 20260506173738 | 59 | 215 | 4.3 | 7.8 | 0.00 | 0.00 | 0.30 | 95 | |
| 20260506172739 | 59 | 210 | 3.5 | 6.1 | 0.00 | 0.00 | 0.30 | 95 | |
| 20260506171738 | 59 | 237 | 2.6 | 9.6 | 0.00 | 0.00 | 0.29 | 94 | |
| 20260506170738 | 59 | 242 | 0.0 | 7.8 | 0.00 | 0.00 | 0.28 | 94 | |
| 20260506165738 | 59 | 230 | 4.3 | 7.8 | 0.00 | 0.00 | 0.27 | 94 | |
| 20260506164738 | 59 | 252 | 0.9 | 5.2 | 0.00 | 0.00 | 0.26 | 93 | |
| 20260506163738 | 59 | 259 | 1.7 | 6.1 | 0.00 | 0.00 | 0.24 | 93 | |
| 20260506162738 | 59 | 219 | 5.2 | 6.1 | 0.00 | 0.00 | 0.24 | 93 | |
| 20260506161738 | 59 | 250 | 0.9 | 5.2 | 0.00 | 0.00 | 0.24 | 93 | |
| 20260506160739 | 59 | 277 | 2.6 | 4.3 | 0.00 | 0.00 | 0.24 | 92 | |
| 20260506155738 | 59 | 229 | 1.7 | 6.1 | 0.00 | 0.00 | 0.23 | 92 | |
| 20260506154738 | 59 | 236 | 1.7 | 5.2 | 0.00 | 0.00 | 0.21 | 92 | |
| 20260506153738 | 59 | 226 | 2.6 | 7.0 | 0.00 | 0.00 | 0.19 | 92 | |
| 20260506152738 | 59 | 248 | 1.7 | 6.1 | 0.00 | 0.00 | 0.17 | 92 | |
| 20260506151738 | 59 | 206 | 0.9 | 7.0 | 0.00 | 0.00 | 0.16 | 92 | |
| 20260506150738 | 59 | 238 | 0.0 | 6.1 | 0.00 | 0.00 | 0.16 | 92 | |
| 20260506145738 | 59 | 239 | 1.7 | 2.6 | 0.00 | 0.00 | 0.15 | 92 | |
| 20260506144738 | 59 | 223 | 2.6 | 4.3 | 0.00 | 0.00 | 0.14 | 92 | |
| 20260506143738 | 59 | 227 | 0.9 | 3.5 | 0.00 | 0.00 | 0.14 | 92 | |
| 20260506142738 | 59 | 225 | 0.9 | 1.7 | 0.00 | 0.00 | 0.14 | 92 | |
| 20260506141738 | 58 | 226 | 0.0 | 0.9 | 0.00 | 0.00 | 0.13 | 91 | |
| 20260506140738 | 58 | 226 | 0.9 | 2.6 | 0.00 | 0.00 | 0.11 | 90 | |
| 20260506135738 | 58 | 209 | 0.9 | 3.5 | 0.00 | 0.00 | 0.10 | 90 | |
| 20260506134738 | 58 | 250 | 0.9 | 4.3 | 0.00 | 0.00 | 0.08 | 90 | |
| 20260506133738 | 58 | 225 | 0.9 | 4.3 | 0.00 | 0.00 | 0.07 | 89 | |
| 20260506132738 | 59 | 254 | 2.6 | 6.1 | 0.00 | 0.00 | 0.06 | 88 | |
| 20260506131738 | 59 | 261 | 1.7 | 6.1 | 0.00 | 0.00 | 0.05 | 87 | |
| 20260506130738 | 59 | 246 | 0.9 | 6.1 | 0.00 | 0.00 | 0.03 | 87 | |
| 20260506125738 | 59 | 200 | 1.7 | 8.7 | 0.00 | 0.00 | 0.02 | 86 | |
| 20260506124738 | 59 | 188 | 2.6 | 7.8 | 0.00 | 0.00 | 0.01 | 86 | |
| 20260506123738 | 57 | 212 | 0.9 | 4.3 | 0.00 | 0.00 | 0.00 | 86 | |
| 20260506122738 | 57 | 186 | 0.0 | 0.0 | 0.00 | 0.00 | 0.00 | 85 | |
| 20260506121738 | 56 | 186 | 0.0 | 0.0 | 0.00 | 0.00 | 0.00 | 84 | |
| 20260506120738 | 56 | 186 | 0.0 | 0.0 | 0.00 | 0.00 | 0.00 | 82 | |
| 20260506115738 | 56 | 186 | 0.0 | 0.0 | 0.00 | 0.00 | 0.00 | 83 | |
| 20260506114737 | 56 | 186 | 0.0 | 0.0 | 0.00 | 0.00 | 0.00 | 83 | |
| 20260506113737 | 56 | 186 | 0.0 | 0.0 | 0.00 | 0.00 | 0.00 | 83 | |
| 20260506112738 | 55 | 186 | 0.0 | 0.0 | 0.00 | 0.00 | 0.00 | 83 | |
| 20260506111738 | 55 | 186 | 0.0 | 0.0 | 0.00 | 0.00 | 0.00 | 83 | |
| 20260506110738 | 55 | 186 | 0.0 | 0.0 | 0.00 | 0.00 | 0.00 | 83 | |
| 20260506105738 | 55 | 186 | 0.0 | 0.0 | 0.00 | 0.00 | 0.00 | 83 | |
| 20260506104737 | 55 | 186 | 0.0 | 0.9 | 0.00 | 0.00 | 0.00 | 83 | |
| 20260506103739 | 55 | 186 | 0.0 | 0.9 | 0.00 | 0.00 | 0.00 | 82 | |
| 20260506102737 | 55 | 186 | 0.9 | 1.7 | 0.00 | 0.00 | 0.00 | 82 | |
| 20260506101738 | 54 | 186 | 0.9 | 0.9 | 0.00 | 0.00 | 0.00 | 82 | |
| 20260506100738 | 54 | 179 | 0.0 | 0.0 | 0.00 | 0.00 | 0.00 | 82 | |
| 20260506095737 | 54 | 182 | 0.0 | 0.0 | 0.00 | 0.00 | 0.00 | 83 | |
| 20260506094737 | 54 | 182 | 0.0 | 0.0 | 0.00 | 0.00 | 0.00 | 83 | |
| 20260506093737 | 54 | 182 | 0.0 | 0.0 | 0.00 | 0.00 | 0.00 | 82 | |
| 20260506092737 | 54 | 182 | 0.0 | 0.0 | 0.00 | 0.00 | 0.00 | 82 | |
| 20260506091738 | 54 | 182 | 0.0 | 0.0 | 0.00 | 0.00 | 0.00 | 82 | |
| 20260506090739 | 54 | 182 | 0.0 | 0.0 | 0.00 | 0.00 | 0.00 | 82 | |
| 20260506084737 | 54 | 182 | 0.0 | 0.0 | 0.00 | 0.00 | 0.00 | 82 | |
| 20260506083737 | 54 | 182 | 0.0 | 0.0 | 0.00 | 0.00 | 0.00 | 81 | |
| 20260506082737 | 54 | 182 | 0.0 | 0.0 | 0.00 | 0.00 | 0.00 | 81 | |
| 20260506081737 | 54 | 182 | 0.0 | 0.0 | 0.00 | 0.00 | 0.00 | 81 | |
| 20260506080737 | 54 | 182 | 0.0 | 0.0 | 0.00 | 0.00 | 0.00 | 81 | |
| 20260506072737 | 54 | 183 | 0.0 | 0.0 | 0.00 | 0.00 | 0.00 | 82 | |
| 20260506071737 | 54 | 184 | 0.0 | 0.0 | 0.00 | 0.00 | 0.00 | 81 | |
| 20260506070737 | 54 | 184 | 0.0 | 0.0 | 0.00 | 0.00 | 0.00 | 81 | |
| 20260506061737 | 54 | 180 | 0.9 | 0.9 | 0.00 | 0.00 | 0.00 | 81 | |
| 20260506060737 | 54 | 180 | 0.0 | 1.7 | 0.00 | 0.00 | 0.00 | 80 | |
| 20260506050737 | 55 | 221 | 0.0 | 1.7 | 0.00 | 0.00 | 0.00 | 78 | |
| 20260506044738 | 56 | 221 | 0.0 | 0.9 | 0.00 | 0.00 | 0.00 | 76 | |
| 20260506043737 | 57 | 221 | 0.9 | 1.7 | 0.00 | 0.00 | 0.00 | 74 | |
| 20260506042738 | 57 | 221 | 0.0 | 1.7 | 0.00 | 0.00 | 0.00 | 73 | |
| 20260506041737 | 57 | 221 | 0.9 | 1.7 | 0.00 | 0.00 | 0.00 | 73 | |
| 20260506040738 | 58 | 221 | 0.9 | 1.7 | 0.00 | 0.00 | 0.00 | 72 | |
| 20260506035737 | 58 | 221 | 0.0 | 1.7 | 0.00 | 0.00 | 0.00 | 71 | |
| 20260506034737 | 58 | 221 | 0.0 | 1.7 | 0.00 | 0.00 | 0.00 | 70 | |
| 20260506033737 | 59 | 221 | 0.0 | 0.0 | 0.00 | 0.00 | 0.00 | 69 | |
| 20260506032737 | 60 | 221 | 0.0 | 0.0 | 0.00 | 0.00 | 0.00 | 68 | |
| 20260506031738 | 60 | 221 | 0.0 | 0.0 | 0.00 | 0.00 | 0.00 | 66 | |
| 20260506030738 | 61 | 221 | 0.0 | 1.7 | 0.00 | 0.00 | 0.00 | 65 | |
| 20260506025737 | 62 | 221 | 0.9 | 1.7 | 0.00 | 0.00 | 0.00 | 65 | |
| 20260506024738 | 63 | 221 | 0.0 | 0.0 | 0.00 | 0.00 | 0.00 | 63 | |
| 20260506023737 | 64 | 221 | 0.0 | 0.0 | 0.00 | 0.00 | 0.00 | 62 | |
| 20260506022737 | 65 | 221 | 0.0 | 0.0 | 0.00 | 0.00 | 0.00 | 60 | |
| 20260506021737 | 65 | 221 | 0.0 | 1.7 | 0.00 | 0.00 | 0.00 | 59 | |
| 20260506020737 | 66 | 221 | 0.0 | 1.7 | 0.00 | 0.00 | 0.00 | 59 | |
| 20260506015738 | 66 | 221 | 0.0 | 2.6 | 0.00 | 0.00 | 0.00 | 59 | |
| 20260506014737 | 66 | 225 | 0.9 | 1.7 | 0.00 | 0.00 | 0.00 | 58 | |
| 20260506013737 | 67 | 225 | 1.7 | 1.7 | 0.00 | 0.00 | 0.00 | 57 | |
| 20260506012737 | 68 | 225 | 0.0 | 1.7 | 0.00 | 0.00 | 0.00 | 56 | |
| 20260506011737 | 68 | 224 | 0.9 | 2.6 | 0.00 | 0.00 | 0.00 | 54 | |
| 20260506010737 | 68 | 236 | 1.7 | 1.7 | 0.00 | 0.00 | 0.00 | 54 | |
| 20260506005737 | 70 | 236 | 0.9 | 1.7 | 0.00 | 0.00 | 0.00 | 52 | |
| 20260506004737 | 71 | 236 | 0.0 | 3.5 | 0.00 | 0.00 | 0.00 | 50 | |
| 20260506003738 | 71 | 200 | 1.7 | 3.5 | 0.00 | 0.00 | 0.00 | 51 | |
| 20260506002737 | 71 | 210 | 0.9 | 4.3 | 0.00 | 0.00 | 0.00 | 50 | |
| 20260506001738 | 71 | 219 | 0.0 | 3.5 | 0.00 | 0.00 | 0.00 | 48 | |
| 20260506000737 | 71 | 217 | 1.7 | 4.3 | 0.00 | 0.00 | 0.00 | 49 | |
| 20260505235737 | 71 | 217 | 0.9 | 3.5 | 0.00 | 0.00 | 0.00 | 51 | |
| 20260505234737 | 72 | 237 | 1.7 | 6.1 | 0.00 | 0.00 | 0.00 | 50 | |
| 20260505233737 | 71 | 221 | 0.9 | 4.3 | 0.00 | 0.00 | 0.00 | 51 | |
| 20260505232737 | 71 | 209 | 0.9 | 4.3 | 0.00 | 0.00 | 0.00 | 52 | |
| 20260505231737 | 71 | 227 | 0.9 | 2.6 | 0.00 | 0.00 | 0.00 | 55 | |
| 20260505230737 | 72 | 231 | 2.6 | 2.6 | 0.00 | 0.00 | 0.00 | 54 | |
| 20260505225737 | 72 | 233 | 2.6 | 4.3 | 0.00 | 0.00 | 0.00 | 50 | |
| 20260505224738 | 73 | 232 | 2.6 | 6.1 | 0.00 | 0.00 | 0.00 | 49 | |
| 20260505223737 | 73 | 264 | 0.9 | 2.6 | 0.00 | 0.00 | 0.00 | 49 | |
| 20260505222737 | 73 | 257 | 1.7 | 7.8 | 0.00 | 0.00 | 0.00 | 48 | |
| 20260505221737 | 73 | 210 | 0.9 | 9.6 | 0.00 | 0.00 | 0.00 | 47 | |
| 20260505220737 | 73 | 238 | 1.7 | 7.0 | 0.00 | 0.00 | 0.00 | 47 | |
| 20260505215737 | 73 | 225 | 8.7 | 8.7 | 0.00 | 0.00 | 0.00 | 46 | |
| 20260505214737 | 74 | 242 | 2.6 | 11.3 | 0.00 | 0.00 | 0.00 | 44 | |
| 20260505213737 | 75 | 207 | 1.7 | 7.8 | 0.00 | 0.00 | 0.00 | 44 | |
| 20260505212737 | 75 | 234 | 4.3 | 12.2 | 0.00 | 0.00 | 0.00 | 42 | |
| 20260505211737 | 76 | 225 | 6.1 | 16.5 | 0.00 | 0.00 | 0.00 | 42 | |
| 20260505210737 | 77 | 249 | 7.0 | 23.5 | 0.00 | 0.00 | 0.00 | 40 | |
| 20260505205737 | 78 | 201 | 13.0 | 32.2 | 0.00 | 0.00 | 0.00 | 37 | |
| 20260505204737 | 77 | 238 | 7.0 | 15.6 | 0.00 | 0.00 | 0.00 | 36 | |
| 20260505203737 | 77 | 243 | 7.8 | 15.6 | 0.00 | 0.00 | 0.00 | 35 | |
| 20260505202738 | 77 | 267 | 9.6 | 19.1 | 0.00 | 0.00 | 0.00 | 34 |